www.pogodaiklimat.ru

Погода и климат >> Архив погоды >> Россия >> Краснодарский край >> Новороссийск


АРХИВ ПОГОДЫ в Новороссийске

Время (UTC), дата Ветер
(напр.,м/с)
 
Видим.   Явления Облачность Т
(С)
Тd
(С)
f
(%)
Тe
(С)
Тes
(С)
Комфортность P
(гПа)
Po
(гПа)
Тmin
(С)
Tmax
(С)
R
(мм)
R24
(мм)
S
(см)
06 13.11 Ю 3 10 км 10/6
[Sc diur, vesp Cc]
+15.5 +12.4 82 +15 +15 тепло 1018.5 1017.2
09 13.11 Ю 2 10 км 9/5 300 м
[Sc diur, vesp Ac As]
+16.3 +13.0 81 +16 +17 тепло 1018.6 1017.3
12 13.11 ЮВ 2 10 км 9/4 300 м
[Cu Sc Ac As Cc]
+17.7 +12.2 70 +18 +19 тепло 1017.7 1016.3
15 13.11 В 2 10 км 10/0
[Cc]
+17.0 +7.1 52 +17 +17 тепло 1017.2 1015.9 +17.9
18 13.11 штиль 0 10 км ясно +14.9 +6.5 57 +15 +15 тепло 1016.6 1015.3
21 13.11 СВ 1 10 км ясно +12.6 +6.0 64 +13 +13 тепло 1015.7 1014.4
00 14.11 штиль 0 10 км 6/0
[Ci fib]
+12.5 +6.1 65 +12 +12 тепло 1014.4 1013.0
03 14.11 штиль 0 10 км 10/0
[Cc]
+13.7 +5.7 58 +14 +14 тепло 1013.8 1012.4 +11.9
06 14.11 штиль 0 20 км 8/0
[Ac trans]
+15.3 +7.1 58 +15 +16 тепло 1014.0 1012.7
09 14.11 штиль 0 20 км 3/0
[Ac trans Ci sp]
+22.9 +3.1 27 +23 +27 комфорт 1013.3 1012.0
12 14.11 штиль 0 20 км 4/0
[Ci sp]
+21.2 +5.9 37 +22 +24 комфорт 1012.9 1011.6
15 14.11 СВ 1 10 км 6/0
[Ac cast Cc]
+16.1 +4.5 46 +17 +17 тепло 1014.1 1012.8 +23.3
18 14.11 СВ 1 10 км ясно +13.9 +5.2 56 +14 +14 тепло 1014.9 1013.6
21 14.11 штиль 0 10 км ясно +12.3 +7.2 71 +12 +12 тепло 1015.9 1014.6
00 15.11 штиль 0 10 км ясно +11.3 +8.5 83 +11 +11 тепло 1017.5 1016.2
03 15.11 СВ 1 10 км ясно +11.3 +8.5 83 +11 +11 тепло 1018.5 1017.2 +11.0
06 15.11 З 1 20 км 3/0
[Ci fib]
+11.5 +8.9 84 +11 +12 тепло 1020.5 1019.1 +10.4
09 15.11 ЮЗ 1 20 км ясно +16.3 +9.0 62 +17 +22 тепло 1020.6 1019.3
12 15.11 СВ 4 10 км ясно +15.5 +8.8 64 +15 +16 тепло 1021.2 1019.9
15 15.11 СВ 6-12
{13}
10 км 3/3 600 м
[Sc]
+10.8 +7.6 81 +8 +8 по сезону 1022.7 1021.3 +17.9
18 15.11 СВ 7-13
{14}
10 км 3/3 600 м
[Sc]
+10.5 +7.2 80 +7 +7 по сезону 1023.7 1022.4
21 15.11 СВ 7-12
{14}
10 км 4/4 600 м
[Sc]
+9.7 +6.5 80 +6 +6 по сезону 1024.8 1023.4
00 16.11 СВ 7-12
{13}
10 км 8/8 600 м
[Sc]
+9.8 +5.7 76 +6 +6 по сезону 1025.2 1023.9
03 16.11 В 5-10
{12}
10 км 3/3 600 м
[Sc]
+9.7 +6.0 78 +7 +7 тепло 1025.4 1024.1 +9.4
06 16.11 СВ 7-12
{13}
20 км 8/8 600 м
[Sc]
+9.7 +5.9 77 +6 +6 по сезону 1026.2 1024.9 +9.3
09 16.11 СВ 8-12
{13}
20 км 8/4 600 м
[Sc Ac trans Ci fib]
+11.0 +6.2 72 +7 +8 по сезону 1026.0 1024.6
12 16.11 СВ 7-12
{12}
20 км 10/10 600 м
[Sc]
+10.6 +6.3 75 +7 +7 по сезону 1025.3 1023.9
15 16.11 СВ 6-12
{13}
10 км 10/10 600 м
[Sc]
+11.1 +6.3 72 +8 +8 по сезону 1025.1 1023.7 +12.3
18 16.11 СВ 7-12
{13}
10 км 3/0
[Ac trans]
+9.4 +6.1 80 +5 +5 по сезону 1025.0 1023.6
21 16.11 В 6-12
{12}
10 км 8/8 600 м
[Sc]
+10.8 +6.0 72 +8 +8 тепло 1024.6 1023.3
00 17.11 СВ 6-12
{13}
10 км 10/10 600 м
[Sc]
+10.6 +6.0 73 +7 +7 тепло 1024.1 1022.8
03 17.11 В 8-14
{16}
10 км 9/8 600 м
[Sc Ci fib]
+8.0 +5.1 82 +3 +3 по сезону 1023.6 1022.2 +8.0
06 17.11 СВ 10-17
{18}
20 км 4/3 600 м
[Sc Cc]
+8.5 +4.5 76 +4 +4 по сезону 1023.9 1022.6 +7.7
09 17.11 СВ 10-17
{19}
20 км 5/3 600 м
[Sc Ci fib]
+9.3 +4.7 73 +5 +5 по сезону 1022.8 1021.4
12 17.11 СВ 12-18
{19}
20 км 5/3 600 м
[Sc Ci fib]
+8.9 +4.3 73 +4 +4 прохладно 1021.2 1019.9
15 17.11 СВ 15-21
{23}
10 км 4/3 600 м
[Sc Ci fib]
+7.6 +3.7 76 +1 +1 прохладно 1020.1 1018.7 +9.4
18 17.11 СВ 12-19
{23}
10 км 3/0
[Ci fib]
+8.0 +3.8 75 +2 +2 по сезону 1019.5 1018.1
21 17.11 СВ 6-12
{19}
10 км 3/0
[Ci fib]
+11.0 +3.5 60 +8 +8 тепло 1018.7 1017.3
00 18.11 СВ 1 10 км ясно +7.1 +3.5 78 +6 +6 по сезону 1019.1 1017.8
03 18.11 В 1 10 км ясно +6.0 +3.2 82 +5 +5 по сезону 1018.3 1016.9 +5.8
06 18.11 штиль 0 20 км 8/0
[Ci fib]
+9.0 +4.8 75 +8 +9 тепло 1018.9 1017.6
09 18.11 ЮЗ 1 20 км 3/0
[Ci fib]
+15.2 +8.1 63 +16 +20 тепло 1017.7 1016.4
12 18.11 Ю 2 20 км 4/3 600 м
[Cu Sc Ac trans]
+16.9 +11.2 69 +17 +18 тепло 1016.4 1015.1
15 18.11 СВ 2 20 км 10/10 600 м
[Sc]
+14.8 +10.8 77 +15 +15 тепло 1015.9 1014.6 +17.1
18 18.11 СВ 2 10 км 4/3 600 м
[Sc Ci fib]
+12.8 +9.0 78 +12 +12 тепло 1015.2 1013.8
21 18.11 штиль 0 10 км 6/3 600 м
[Sc Ci fib]
+11.7 +8.2 79 +11 +11 тепло 1014.5 1013.2
00 19.11 ЮВ 2 10 км 9/9 600 м
[Sc]
+14.6 +10.3 75 +14 +14 тепло 1014.0 1012.6
03 19.11 С 1 10 км 3/3 600 м
[Sc]
+12.1 +9.0 81 +12 +12 тепло 1012.8 1011.5 +11.5
06 19.11 штиль 0 20 км 10/0
[Cc]
+12.2 +8.7 79 +12 +12 тепло 1012.4 1011.1 +11.4
09 19.11 Ю 2 20 км ясно +18.0 +9.1 56 +19 +22 тепло 1011.3 1010.0
12 19.11 ЮВ 3 20 км 5/0
[Ci fib]
+17.8 +9.6 59 +18 +19 тепло 1009.9 1008.6
15 19.11 В 1 10 км 10/0
[Ci]
+15.7 +8.0 60 +16 +16 тепло 1009.5 1008.2 +18.8
18 19.11 штиль 0 10 км 10/0
[Cc]
+15.0 +8.7 66 +15 +15 тепло 1008.7 1007.4
21 19.11 ЮВ 3 10 км 10/3 600 м
[Sc Cc]
+16.4 +10.0 66 +16 +16 тепло 1009.0 1007.7
00 20.11 Ю 2 10 км 10/10
[Sc]
+15.4 +12.7 84 +15 +15 тепло 1008.5 1007.2

 

Местоположение метеостанции Новороссийск (Краснодарский край, Россия): широта 44.72 долгота 37.85 высота над уровнем моря 3 м.

В архиве по умолчанию представлена погода в Новороссийске за последнюю неделю. Архивные данные за месяц целиком и за предыдущие месяцы, начиная с января 2011 года, Вы можете получить, выбрав интересующий диапазон дат из раскрывающегося списка и нажав кнопку "Ввод!".

Внимание! Время в таблицах - всемирное. Для получения местного времени необходимо прибавить поправку, которая в Новороссийске равна 3 ч.

Смотрите также архив погоды в соседних городах и на ближайших метеорологических станциях:

Погода в Геленджике (Краснодарский край, Россия) (25 км)
Погода в Крымске (Краснодарский край, Россия) (25 км)
Погода в Анапе (Краснодарский край, Россия) (48 км)
Погода в Славянске-на-Кубани (Краснодарский край, Россия) (66 км)
Погода в Темрюке (Краснодарский край, Россия) (76 км)
Погода в Джубге (Краснодарский край, Россия) (81 км)
Погода в Горячем Ключе (Краснодарский край, Россия) (99 км)
Погода в Краснодаре (Краснодарский край, Россия) (100 км)
Погода в Тамани (Краснодарский край, Россия) (105 км)
Погода в Туапсе (Краснодарский край, Россия) (119 км)

Пояснения к столбцам:

Ветер - указаны скорость ветра в м/с - средняя за 10 мин, порывы в срок и между сроками (в фигурных скобках) и направление, откуда дует ветер: С - северный, СВ - северо-восточный, В - восточный, ЮВ - юго-восточный, Ю - южный, ЮЗ - юго-западный, З - западный, СЗ - северо-западный.
Видимость - горизонтальная дальность видимости в метрах или километрах. При видимости от 1 до 10 км при отсутствии осадков обычно наблюдается дымка, при ухудшении видимости до 1 км и менее - туман. В сухую погоду видимость может ухудшаться дымом, пылью или мглою.
Явления - указаны атмосферные явления, наблюдавшиеся в срок или в последний час перед сроком; фигурными скобками обозначены явления, наблюдавшиеся между сроками (за 1-3 часа до срока); квадратными скобками обозначены град или гололедные отложения с указанием их диаметра в мм.
Облачность - указаны через наклонную черту общая и нижняя облачность в баллах и высота нижней границы облаков в метрах; квадратными скобками обозначены формы облаков: Ci - перистые, Cs - перисто-слоистые, Cc - перисто-кучевые, Ac - высококучевые, As - высокослоистые, Sc - слоисто-кучевые, Ns - слоисто-дождевые, Cu - кучевые, Cb - кучево-дождевые. Подробнее классификацию облаков см. в Атласе облаков (PDF).
T - Температура воздуха - температура, измеренная на высоте 2 м над землей.
Td - Температура точки росы - температура, при понижении до которой содержащийся в воздухе водяной пар достигнет насыщения.
f - Относительная влажность воздуха - влажноcть воздуха, измеренная на высоте 2 м над землей.
Te - Эффективная температура - температура, которую ощущает одетый по сезону человек в тени. Характеристика душности погоды. При расчете учитывается влияние влажности воздуха и скорости ветра на теплоощущения человека.
Tes - Эффективная температура на солнце - температура, которую ощущает человек, с поправкой на солнечный нагрев. Характеристика знойности погоды. Зависит от высоты солнца над горизонтом, облачности и скорости ветра. Ночью, в пасмурную погоду, а также при ветре 12 м/с и более поправка равна нулю.
P - Атмосферное давление - приведенное к уровню моря атмосферное давление.
Po - Атмосферное давление - измеренное на уровне метеостанции атмосферное давление.
Tmin - Минимальная температура - минимум температуры воздуха на высоте 2 м над землей.
Tmax - Максимальная температура - максимум температуры воздуха на высоте 2 м над землей.
R - Количество осадков - Количество выпавших осадков за период времени, мм. При наведении курсора мыши на число - период времени, за который выпало указанное количество осадков.
R24 - Количество осадков - Количество выпавших осадков за 24 часа, мм.
S - Снежный покров - Высота снежного покрова, см. При наведении курсора мыши на число - состояние снежного покрова и степень покрытия местности в баллах.